Regional Weather Roundup
Issued by NWS Goodland, KS

Home | Current Version | Previous Version | Text Only | Print | Product List | Glossary Off
Versions: 1 2 3 4 5 6 7 8 9 10 11 12 13 14 15 16 17 18 19 20 21 22 23 24 25 26 27 28 29 30 31 32 33 34 35 36 37 38 39 40 41 42 43 44 45 46 47 48 49 50

000
ASUS43 KGLD 202359
RWRGLD

GOODLAND FORECAST AREA HOURLY WEATHER ROUNDUP
NATIONAL WEATHER SERVICE GOODLAND KS
500 PM MST MON NOV 20 2017

...OFFICIAL OBSERVATIONS...

CITY           SKY/WX    TMP DP  RH WIND       PRES   REMARKS
GOODLAND KS    CLOUDY    53  10  18 NW7       29.77R
HILL CITY KS   CLOUDY    59  16  18 W6        29.70R
IMPERIAL NEB   CLOUDY    59  17  19 NW9       29.76R
MCCOOK NEB     CLOUDY    58  21  24 NW9       29.71R
AKRON CO       CLOUDY    57  10  15 NW20      29.80S
BURLINGTON CO  CLOUDY    59   4  11 N7        29.80R
LIMON CO       CLOUDY    52   7  16 NE13      29.83R
$$

...UNOFFICIAL OBSERVATIONS...

CITY           SKY/WX    TMP DP  RH WIND       PRES   REMARKS
LENORA KS        N/A     63  32  31 W6          N/A
NORTON KS      CLEAR     57   7  13 NW10      29.69
SHARON SPRINGS   N/A     58  13  17 CALM        N/A
TRENTON NEB      N/A     60  32  34 NW9         N/A
YUMA CO        FAIR      55  12  18 NW9       29.80R
$$




USA.gov is the U.S. government's official web portal to all federal, state and local government web resources and services.